Flag for Germany Weather past 2 weeks in Siegen, North Rhine-Westphalia, Germany

Now
41 °F

Sunny.


Feels Like: 36 °F
Forecast: 41 / 49 °F
Wind: 8 mph from Southeast

Location: Hessen


UV Index: 3 (Moderate)

Visibility: 10 mi


Pressure: 30.24 "Hg

Humidity: 61%

Dew point: 28 °F

Location of SiegenLocation

Historic Weather in Siegen

°F

Siegen temperature yesterday

Maximum temperature yesterday: 48 °F (at 1:50 PM)
Minimum temperature yesterday: 34 °F (at 7:50 AM)
Average temperature yesterday: 44 °F

Past Weeks' High & Low Weather Summary

 TemperatureHumidityPressure
High66 °F (Apr 3, 2:50 PM)100% (Apr 5, 7:50 AM)30.39 "Hg (Apr 5, 7:50 AM)
Low32 °F (Apr 15, 6:50 AM)37% (Apr 3, 3:50 PM)29.68 "Hg (Apr 3, 7:50 AM)
Average50 °F72%30.03 "Hg
* Reported Apr 2 8:20 AM — Apr 17 8:20 AM, Siegen, Weather by CustomWeather, © 2014

Note: Actual official high and low records may vary slightly from our data, if they occured in-between our weather recording intervals... More about our weather records

Advertising

Historic Weather Conditions — Data for Previous 24 hours

 ConditionsComfort  
Time TempWeatherWind HumidityBarometerVisibility
8:20 AM
Apr 17
39 °FSunny.8 mph65%30.24 "Hg10 mi
7:50 AM37 °FSunny.8 mph65%30.24 "Hg10 mi
7:20 AM36 °FClear.7 mph70%30.24 "Hg10 mi
6:50 AM36 °FPassing clouds.6 mph70%30.27 "HgN/A
6:20 AM36 °FClear.6 mph70%30.27 "Hg10 mi
9:50 PM
Apr 16
41 °FFog.6 mph66%30.33 "HgN/A
9:20 PM41 °FSunny.6 mph66%30.36 "Hg10 mi
8:50 PM43 °FSunny.6 mph61%30.33 "Hg10 mi
8:20 PM45 °FSunny.5 mph57%30.33 "Hg10 mi
7:50 PM46 °FSunny.7 mph53%30.33 "Hg10 mi
7:20 PM48 °FSunny.8 mph50%30.33 "Hg10 mi
6:50 PM48 °FSunny.7 mph46%30.33 "Hg10 mi
6:20 PM48 °FPassing clouds.7 mph46%30.33 "HgN/A
5:50 PM48 °FSunny.13 mph50%30.36 "Hg10 mi
5:20 PM48 °FPassing clouds.10 mph46%30.36 "HgN/A
4:50 PM48 °FPassing clouds.9 mph50%30.36 "HgN/A
4:20 PM48 °FScattered clouds.10 mph50%30.36 "HgN/A
3:50 PM48 °FScattered clouds.9 mph50%30.36 "HgN/A
3:20 PM46 °FScattered clouds.9 mph50%30.36 "HgN/A
2:50 PM48 °FScattered clouds.7 mph50%30.36 "HgN/A
2:20 PM48 °FScattered clouds.8 mph50%30.39 "HgN/A
1:50 PM48 °FScattered clouds.9 mph54%30.39 "HgN/A
1:20 PM46 °FScattered clouds.8 mph50%30.39 "HgN/A
12:50 PM45 °FScattered clouds.12 mph57%30.39 "HgN/A
12:20 PM46 °FScattered clouds.8 mph53%30.39 "HgN/A
11:50 AM45 °FPassing clouds.9 mph57%30.39 "HgN/A
11:20 AM45 °FPassing clouds.8 mph57%30.39 "HgN/A
10:50 AM43 °FPassing clouds.7 mph66%30.39 "HgN/A
10:20 AM41 °FSunny.9 mph66%30.39 "Hg10 mi
9:50 AM39 °FSunny.9 mph70%30.39 "Hg10 mi
9:20 AM39 °FSunny.9 mph70%30.36 "Hg10 mi
Weather by CustomWeather, © 2014

See weather overview